TimeAST,TemperatureF,Dew PointF,Humidity,Sea Level PressureIn,VisibilityMPH,Wind Direction,Wind SpeedMPH,Gust SpeedMPH,PrecipitationIn,Events,Conditions,WindDirDegrees,DateUTC
12:00 AM,80.6,73.4,79,29.92,6.2,East,10.4,-,N/A,Rain,Light Rain Showers,80,2012-11-05 04:00:00
1:00 AM,80.6,73.4,79,29.92,6.2,East,9.2,-,N/A,,Scattered Clouds,90,2012-11-05 05:00:00
2:00 AM,80,74,76,29.90,34,ESE,5.8,,,,Partly Cloudy,110,2012-11-05 06:00:00
2:00 AM,80.6,73.4,79,29.89,6.2,ESE,5.8,-,N/A,,Partly Cloudy,110,2012-11-05 06:00:00
3:00 AM,80.6,75.2,84,29.89,6.2,ESE,6.9,-,N/A,,Partly Cloudy,120,2012-11-05 07:00:00
5:00 AM,79,74,79,29.89,34,SE,5.8,,,,Partly Cloudy,130,2012-11-05 09:00:00
5:00 AM,78.8,73.4,83,29.89,6.2,SE,5.8,-,N/A,,Scattered Clouds,130,2012-11-05 09:00:00
6:00 AM,80.6,73.4,79,29.89,6.2,ESE,5.8,-,N/A,,Scattered Clouds,110,2012-11-05 10:00:00
6:39 AM,77.0,73.4,89,29.92,5.0,Variable,3.5,-,N/A,Rain,Rain Showers,0,2012-11-05 10:39:00
7:00 AM,78.8,75.2,89,29.92,6.2,Variable,3.5,-,N/A,,Mostly Cloudy,0,2012-11-05 11:00:00
8:00 AM,81,74,75,29.94,16,ESE,6.9,,,Rain,Light Rain Showers,120,2012-11-05 12:00:00
8:00 AM,80.6,75.2,84,29.92,6.2,ESE,6.9,-,N/A,Rain,Light Rain Showers,120,2012-11-05 12:00:00
9:00 AM,84.2,73.4,70,29.95,6.2,ESE,10.4,-,N/A,,Mostly Cloudy,120,2012-11-05 13:00:00
10:00 AM,84.2,73.4,70,29.95,6.2,SE,11.5,-,N/A,,Partly Cloudy,130,2012-11-05 14:00:00
11:00 AM,85,75,65,29.96,44,ESE,8.1,,,,Partly Cloudy,120,2012-11-05 15:00:00
11:00 AM,86.0,75.2,70,29.95,6.2,ESE,8.1,-,N/A,,Scattered Clouds,120,2012-11-05 15:00:00
12:00 PM,84.2,73.4,70,29.95,6.2,ESE,9.2,-,N/A,,Mostly Cloudy,110,2012-11-05 16:00:00
1:00 PM,86.0,73.4,66,29.92,6.2,ESE,10.4,-,N/A,,Scattered Clouds,110,2012-11-05 17:00:00
2:00 PM,85,74,61,29.91,25,ESE,9.2,,,,Mostly Cloudy,120,2012-11-05 18:00:00
2:00 PM,84.2,73.4,70,29.89,6.2,ESE,8.1,-,N/A,,Mostly Cloudy,110,2012-11-05 18:00:00
3:00 PM,82.4,73.4,74,29.89,6.2,ESE,10.4,-,N/A,,Mostly Cloudy,110,2012-11-05 19:00:00
4:00 PM,82.4,73.4,74,29.89,6.2,ESE,8.1,-,N/A,,Scattered Clouds,110,2012-11-05 20:00:00
5:00 PM,83,74,68,29.91,28,ESE,6.9,,,,Mostly Cloudy,120,2012-11-05 21:00:00
5:00 PM,82.4,73.4,74,29.92,6.2,ESE,8.1,-,N/A,,Mostly Cloudy,110,2012-11-05 21:00:00
6:00 PM,80.6,75.2,84,29.92,6.2,SE,12.7,-,N/A,,Mostly Cloudy,140,2012-11-05 22:00:00
7:00 PM,80.6,73.4,79,29.92,6.2,SE,5.8,-,N/A,,Mostly Cloudy,140,2012-11-05 23:00:00
8:00 PM,80,74,76,29.95,25,,3.5,,,,Scattered Clouds,,2012-11-06 00:00:00
8:00 PM,80.6,73.4,79,29.95,6.2,Variable,3.5,-,N/A,,Partly Cloudy,0,2012-11-06 00:00:00
9:00 PM,80.6,73.4,79,29.95,6.2,East,9.2,-,N/A,,Partly Cloudy,90,2012-11-06 01:00:00
10:00 PM,80.6,71.6,74,29.95,6.2,East,5.8,-,N/A,,Partly Cloudy,100,2012-11-06 02:00:00
11:00 PM,81,73,71,29.95,25,ESE,8.1,,,,Partly Cloudy,110,2012-11-06 03:00:00
11:00 PM,80.6,73.4,79,29.95,6.2,East,8.1,-,N/A,,Scattered Clouds,100,2012-11-06 03:00:00